Location: Mactaquac Provincial Park
(45.9573°N, 66.8897°W)
Time: 18:11:12
(UTC-03:00)

Daily predictions for brighter satellites

Satellite Brightness Start Highest point End
(mag) Time Altitude Azimuth Time Altitude Azimuth Time Altitude Azimuth
Cosmos 1238 Rocket 3.5 21:32:26 10° NNE 21:35:17 29° ENE 21:38:29 10° SE
Cosmos 2074 Rocket 4.1 21:30:30 10° S 21:36:48 87° W 21:43:06 10° N
NOSS 2-2 (D) 3.7 21:32:40 10° SW 21:36:51 88° NW 21:41:51 10° NE
Cosmos 1954 Rocket 4.3 21:31:50 10° NNW 21:36:57 54° ENE 21:42:05 10° SE
Terra 4.0 21:37:22 10° ENE 21:38:40 11° NE 21:39:57 10° NE
Cosmos 2056 Rocket 3.6 21:33:50 10° SSW 21:39:00 86° WNW 21:44:10 10° NNE
ISS -2.1 21:40:05 10° SSW 21:42:41 22° SE 21:45:19 10° E
SPOT 5 3.5 21:37:43 10° SE 21:42:50 52° ENE 21:48:03 10° N
Cosmos 1862 3.8 21:41:23 10° SSE 21:45:13 41° E 21:49:05 10° NNE
USA 186 4.1 21:43:19 10° SSW 21:45:58 24° W 21:48:45 10° NW
Cosmos 1610 Rocket 4.5 21:40:15 10° S 21:46:23 78° E 21:52:39 10° N
Cosmos 1674 Rocket 3.9 21:44:29 10° NNW 21:48:56 71° W 21:53:20 10° S
BREEZE-M TANK 4.4 21:23:50 10° WSW 21:49:03 83° S 21:53:46 10° E
Nadezhda 3 Rocket 4.1 21:44:10 10° N 21:50:31 70° E 21:56:52 10° SSE
COS B Rocket 3.5 21:47:06 10° N 21:51:11 54° E 21:54:50 10° SSE
Gbstr 26 Del rocket 4.4 21:45:59 10° WNW 21:51:27 44° N 21:55:52 10° ENE
Okean 3 3.9 21:47:16 10° N 21:51:27 48° ENE 21:55:33 10° SSE
NOSS 2-2 (C) 4.1 21:47:26 10° SW 21:51:37 66° NW 21:56:38 10° NE
Okean 2 Rocket 4.0 21:49:01 10° SSE 21:52:54 31° E 21:56:46 10° NNE
Meteor 1-27 Rocket 3.7 21:48:36 10° N 21:54:13 83° E 21:59:44 10° SSE
SL-27 R/B 4.2 21:53:37 10° NW 21:56:55 32° WSW 22:00:10 10° SSW
Cosmos 1606 2.8 21:53:47 10° N 21:57:44 89° W 22:01:40 10° S
Sich 1 Rocket 3.8 21:58:12 10° S 22:02:47 83° W 22:07:24 10° N
Cosmos 1782 Rocket 3.8 22:02:16 10° S 22:06:35 52° E 22:10:57 10° NNE
Cosmos 1782 4.2 22:04:44 10° NNW 22:08:31 40° W 22:12:17 10° SSW
DNEPR-1 R/B 4.0 22:04:41 10° NW 22:10:21 73° NE 22:14:12 15° SE
MetOp-B 4.2 22:05:09 10° SSE 22:10:29 74° ENE 22:15:50 10° N
Envisat 3.4 22:07:20 10° S 22:12:22 66° WSW 22:17:28 10° NNW
APEX 4.3 22:11:23 10° S 22:14:57 33° ESE 22:19:29 10° NE
COSMOS 2487 2.6 22:11:26 10° NNW 22:15:04 78° WSW 22:18:09 14° SSE
Cosmos 2341 Rocket 4.0 22:11:34 10° S 22:17:51 77° E 22:24:08 10° N
Cosmos 1975 Rocket 3.0 22:14:58 10° N 22:19:19 80° E 22:23:14 13° SSE
Cosmos 1939 Rocket 4.2 22:19:22 10° SSW 22:22:58 36° W 22:26:38 10° NNW
Cosmos 1420 Rocket 4.1 22:18:31 10° S 22:23:38 55° ESE 22:28:44 10° NNE
Cosmos 614 Rocket 4.1 22:19:58 10° NNW 22:25:03 62° ENE 22:28:45 18° SE
ATLAS 5 CENTAUR R/B 4.4 22:23:10 10° WNW 22:27:31 21° WSW 22:32:03 10° SSW
ARGOS 3.2 22:23:42 15° SSE 22:28:03 65° ENE 22:33:22 10° N
Timation 2 Rocket 3.9 22:23:37 10° NNW 22:29:40 90° ESE 22:34:22 17° SSE
UNK 4.5 22:23:27 10° NNE 22:29:42 68° ESE 22:35:37 10° S
Cosmos 1378 Rocket 4.4 22:27:07 10° NNW 22:31:18 49° W 22:35:28 10° SSW
Cosmos 1908 Rocket 4.4 22:27:09 10° SSW 22:31:28 52° WNW 22:35:50 10° N
Cosmos 2084 3.1 22:27:45 10° SW 22:31:36 86° NW 22:35:28 10° NE
SL-8 Rocket 4.1 22:25:51 10° S 22:31:59 60° E 22:38:07 10° NNE
Cosmos 1536 Rocket 4.4 22:27:54 10° N 22:32:05 37° ENE 22:34:31 21° SE
CZ-4 R/B 4.3 22:28:12 10° NNE 22:32:37 40° E 22:35:36 18° SSE
Cosmos 1140 Rocket 3.6 22:29:50 10° NNW 22:34:59 73° WSW 22:39:06 16° S
H-2A R/B 2.8 22:32:36 19° SE 22:36:06 42° ENE 22:41:04 10° N
USA 234 4.1 22:32:39 10° ENE 22:37:54 25° SE 22:43:07 10° S
BREEZE-M DEB 4.1 22:34:44 10° WSW 22:38:52 80° SSE 22:41:34 10° ENE
Cosmos 1452 Rocket 4.2 22:36:48 10° SW 22:41:59 58° WNW 22:47:14 10° NNE
USA 245 3.3 22:44:18 22° S 22:46:24 69° W 22:50:35 10° NNW
YAOGAN 6 3.3 22:44:08 15° S 22:46:46 47° W 22:50:12 10° NNW
CZ-4B R/B 3.3 22:41:47 10° NNE 22:46:47 73° ESE 22:51:12 12° S
Cosmos 1242 Rocket 3.1 22:44:24 10° NNW 22:47:59 55° W 22:50:30 18° S
Cosmos 1833 Rocket 2.8 22:42:59 10° NNW 22:48:36 64° ENE 22:52:00 24° SE
Cosmos 1408 4.0 22:45:49 10° SW 22:49:14 38° WNW 22:52:40 10° N
SPOT 1/Viking Rocket 3.7 22:47:24 17° S 22:51:29 72° WSW 22:56:43 10° NNW
Cosmos 2278 Rocket 2.5 22:46:44 10° SW 22:52:23 69° WNW 22:58:05 10° NNE
Cosmos 1825 3.8 22:50:07 10° SW 22:53:38 35° WNW 22:57:11 10° N
Cosmos 1844 Rocket 4.4 22:50:38 10° WSW 22:55:47 35° NW 23:00:57 10° NNE
Intercosmos 25 3.2 22:52:53 14° SSW 22:55:50 65° W 22:58:59 10° N
Meteor 1-18 Rocket 4.4 22:51:42 10° N 22:57:37 70° ENE 23:01:13 25° SSE
Cosmos 2151 Rocket 3.6 22:56:02 23° S 22:58:47 68° E 23:03:18 10° NNE
Landsat 7 3.8 22:57:13 27° SSE 22:59:51 76° ENE 23:04:37 10° N
H-2A R/B 4.3 22:57:16 10° SW 23:00:26 20° W 23:03:35 10° NW
Cosmos 864 Rocket 4.4 22:58:01 18° S 23:02:36 70° E 23:08:45 10° NNE
Meteor 1-14 Rocket 4.2 22:58:46 12° S 23:04:06 89° WNW 23:09:43 10° N
SL-8 R/B 4.1 23:01:52 10° W 23:06:41 65° N 23:11:29 10° ENE
Cosmos 2082 Rocket 2.3 23:04:10 10° NNW 23:09:53 74° WSW 23:13:01 27° SSE
IGS 5A 3.6 23:10:41 37° SE 23:12:09 62° ENE 23:16:16 10° N
Cosmos 2366 rocket 4.0 23:07:19 16° S 23:12:24 87° E 23:18:47 10° N
Cosmos 1812 2.7 23:11:24 10° N 23:15:17 66° E 23:16:16 45° SE
Terra 1.8 23:13:28 33° SSE 23:15:34 76° ENE 23:20:21 10° N
ISS -2.9 23:15:39 10° WSW 23:18:54 64° NNW 23:22:09 10° ENE
Cosmos 1300 Rocket 3.9 23:17:59 38° SE 23:19:03 46° E 23:23:20 10° NNE
SL-08 RB Rocket 4.4 23:17:17 22° SSW 23:19:58 49° W 23:24:30 10° NNW
SAR-Lupe-2 3.9 23:20:07 45° ESE 23:20:40 50° ENE 23:24:10 10° N
Okean 1 Rocket 3.6 23:20:59 38° SE 23:21:55 43° E 23:26:09 10° NNE
USA 229 DEB 3.9 23:18:35 10° NW 23:25:38 69° WSW 23:29:26 30° SSE
USA 229 3.9 23:18:41 10° NW 23:25:44 69° WSW 23:29:32 30° SSE
Spot 4 3.9 23:24:25 38° SSE 23:26:17 74° ENE 23:31:09 10° N
Cosmos 2297 4.0 23:21:46 10° SW 23:27:28 70° WNW 23:33:13 10° NNE
Okean 1-7 Rocket 3.8 23:24:05 10° N 23:28:33 57° ENE 23:29:41 43° SE
Meteor 1-11 Rocket 4.4 23:29:43 33° SE 23:31:25 40° E 23:36:46 10° NNE
DMSP B5D2-2 4.0 23:26:50 10° NNE 23:32:05 76° ESE 23:34:29 33° S
Iridium 4 Rocket 4.4 23:30:39 10° N 23:36:14 43° E 23:38:10 33° ESE
Lacrosse 5 3.2 23:38:29 24° E 23:38:29 24° E 23:41:13 10° ENE
Gbstr 26 Del rocket 3.0 23:33:52 10° WNW 23:38:55 83° NNE 23:40:13 45° ESE
NOSS 8 (E) 4.4 23:38:52 57° SW 23:39:30 88° SSE 23:43:22 10° NE
ASTEX 1 3.3 23:38:47 10° N 23:43:46 77° E 23:45:20 44° S
NOSS 3-1 (A) 4.3 23:36:36 10° NW 23:43:57 62° NE 23:48:50 26° ESE
Cosmos 1331 Rocket 3.8 23:42:01 37° S 23:44:06 77° ESE 23:49:17 10° NNE
Spot 2 4.0 23:40:27 10° NNE 23:44:48 66° ESE 23:45:24 57° SSE
Cosmos 1000 Rocket 4.5 23:39:46 10° N 23:46:02 73° E 23:48:32 38° SSE
BREEZE-M DEB (TANK) 4.3 23:40:40 10° WNW 23:47:11 24° WSW 23:48:20 21° SW
Timation 1 Rocket 4.3 23:44:33 21° SSW 23:48:41 87° ESE 23:54:44 10° NNE
Cosmos 1110 Rocket 4.0 23:48:01 29° SSW 23:50:45 84° WNW 23:56:00 10° NNE
BREEZE-M DEB (TANK) 2.9 23:49:57 10° WNW 23:52:17 49° N 23:57:45 10° E
CZ-4B R/B 3.9 23:57:15 12° ENE 23:57:15 12° ENE 23:58:17 10° NE
